• In Hungary
  • List of Countries
  • For 7 days
  • Water Temperature
  • Satellite Maps
  • Weather Map
  • News
  • Weather Widgets
  • user-avatar
    Login

    Hourly Weather Gorodischevo

    Today, 19 August, Sunday

    Time Temperature Precipitation Wind Pressure Humidity
    00:00 +15°C° 0 mm 1 mps 753 mmHg 65%
    01:00 +15°C° 0 mm 1 mps 753 mmHg 68%
    02:00 +15°C° 0 mm 1 mps 754 mmHg 70%
    03:00 +14°C° 0 mm 2 mps 753 mmHg 78%
    04:00 +14°C° 0 mm 2 mps 753 mmHg 79%
    05:00 +14°C° 0 mm 1 mps 753 mmHg 80%
    06:00 +14°C° 0 mm 1 mps 753 mmHg 81%
    07:00 +16°C° 0 mm 1 mps 753 mmHg 74%
    08:00 +18°C° 0 mm 2 mps 753 mmHg 66%
    09:00 +21°C° 0 mm 2 mps 753 mmHg 59%
    10:00 +23°C° 0 mm 2 mps 753 mmHg 55%
    11:00 +24°C° 0 mm 2 mps 753 mmHg 51%
    12:00 +26°C° 0 mm 2 mps 753 mmHg 46%
    13:00 +26°C° 0 mm 2 mps 752 mmHg 45%
    14:00 +27°C° 0 mm 3 mps 752 mmHg 44%
    15:00 +27°C° 0 mm 3 mps 751 mmHg 43%
    16:00 +27°C° 0 mm 3 mps 751 mmHg 47%
    17:00 +26°C° 0 mm 2 mps 751 mmHg 51%
    18:00 +26°C° 0 mm 2 mps 750 mmHg 54%
    19:00 +24°C° 0 mm 2 mps 750 mmHg 60%
    20:00 +21°C° 0 mm 2 mps 750 mmHg 65%
    21:00 +19°C° 0 mm 2 mps 750 mmHg 70%
    22:00 +19°C° 0 mm 2 mps 750 mmHg 71%
    23:00 +18°C° 0 mm 3 mps 750 mmHg 73%

    Tomorrow, 20 August, Monday

    Time Temperature Precipitation Wind Pressure Humidity
    00:00 +18°C° 0 mm 3 mps 750 mmHg 74%
    01:00 +17°C° 0 mm 3 mps 750 mmHg 75%
    02:00 +17°C° 0 mm 3 mps 749 mmHg 75%
    03:00 +17°C° 0 mm 3 mps 749 mmHg 75%
    04:00 +17°C° 0 mm 3 mps 749 mmHg 76%
    05:00 +17°C° 0 mm 3 mps 749 mmHg 77%
    06:00 +17°C° 0 mm 3 mps 749 mmHg 77%
    07:00 +19°C° 0 mm 3 mps 749 mmHg 72%
    08:00 +20°C° 0 mm 3 mps 749 mmHg 67%
    09:00 +22°C° 0 mm 4 mps 749 mmHg 62%
    10:00 +25°C° 0.1 mm 4 mps 749 mmHg 59%
    11:00 +26°C° 0.1 mm 4 mps 749 mmHg 55%
    12:00 +27°C° 0.1 mm 5 mps 749 mmHg 52%
    13:00 +27°C° 0.3 mm 5 mps 748 mmHg 52%
    14:00 +28°C° 0.3 mm 5 mps 748 mmHg 52%
    15:00 +28°C° 0.3 mm 5 mps 747 mmHg 52%
    16:00 +27°C° 0.2 mm 4 mps 747 mmHg 55%
    17:00 +27°C° 0.2 mm 4 mps 747 mmHg 59%
    18:00 +26°C° 0.2 mm 3 mps 747 mmHg 62%
    19:00 +24°C° 0.1 mm 3 mps 747 mmHg 69%
    20:00 +22°C° 0.1 mm 3 mps 747 mmHg 76%
    21:00 +20°C° 0.1 mm 3 mps 747 mmHg 83%
    22:00 +19°C° 0 mm 3 mps 746 mmHg 84%
    23:00 +19°C° 0 mm 3 mps 746 mmHg 86%

    Day after tomorrow, 21 August, Tuesday

    Time Temperature Precipitation Wind Pressure Humidity
    00:00 +19°C° 0 mm 3 mps 746 mmHg 87%
    01:00 +18°C° 0 mm 3 mps 746 mmHg 88%
    02:00 +18°C° 0 mm 3 mps 745 mmHg 89%
    03:00 +18°C° 0 mm 3 mps 745 mmHg 90%
    04:00 +18°C° 0 mm 3 mps 745 mmHg 89%
    05:00 +18°C° 0 mm 3 mps 745 mmHg 88%
    06:00 +18°C° 0 mm 3 mps 744 mmHg 87%
    07:00 +19°C° 0 mm 4 mps 744 mmHg 80%
    08:00 +21°C° 0 mm 5 mps 744 mmHg 74%
    09:00 +23°C° 0 mm 5 mps 744 mmHg 67%
    10:00 +24°C° 0.1 mm 6 mps 743 mmHg 63%
    11:00 +26°C° 0.1 mm 7 mps 743 mmHg 59%
    12:00 +27°C° 0.1 mm 7 mps 742 mmHg 56%
    13:00 +27°C° 0.7 mm 8 mps 742 mmHg 58%
    14:00 +27°C° 0.7 mm 8 mps 742 mmHg 60%
    15:00 +27°C° 0.7 mm 8 mps 741 mmHg 62%
    16:00 +24°C° 1.8 mm 7 mps 741 mmHg 68%
    17:00 +23°C° 1.8 mm 7 mps 741 mmHg 74%
    18:00 +21°C° 1.8 mm 6 mps 741 mmHg 81%
    19:00 +20°C° 0.4 mm 5 mps 741 mmHg 82%
    20:00 +19°C° 0.4 mm 5 mps 741 mmHg 84%
    21:00 +18°C° 0.4 mm 4 mps 742 mmHg 86%
    22:00 +17°C° 0 mm 4 mps 742 mmHg 86%
    23:00 +15°C° 0 mm 4 mps 743 mmHg 86%

    22 August, Wednesday

    Time Temperature Precipitation Wind Pressure Humidity
    00:00 +14°C° 0 mm 4 mps 743 mmHg 86%
    01:00 +13°C° 0 mm 4 mps 744 mmHg 86%
    02:00 +12°C° 0 mm 4 mps 744 mmHg 86%
    03:00 +12°C° 0 mm 4 mps 744 mmHg 86%
    04:00 +11°C° 0 mm 4 mps 745 mmHg 86%
    05:00 +11°C° 0 mm 4 mps 745 mmHg 86%
    06:00 +11°C° 0 mm 4 mps 745 mmHg 86%
    07:00 +12°C° 0 mm 5 mps 746 mmHg 81%
    08:00 +13°C° 0 mm 6 mps 746 mmHg 75%
    09:00 +14°C° 0 mm 6 mps 746 mmHg 69%
    10:00 +15°C° 0 mm 6 mps 747 mmHg 63%
    11:00 +17°C° 0 mm 6 mps 747 mmHg 56%
    12:00 +19°C° 0 mm 6 mps 747 mmHg 50%
    13:00 +19°C° 0 mm 6 mps 748 mmHg 48%
    14:00 +19°C° 0 mm 6 mps 748 mmHg 46%
    15:00 +20°C° 0 mm 6 mps 748 mmHg 44%
    16:00 +19°C° 0 mm 6 mps 749 mmHg 46%
    17:00 +17°C° 0 mm 5 mps 749 mmHg 49%
    18:00 +18°C° 0 mm 4 mps 749 mmHg 52%
    19:00 +15°C° 0 mm 4 mps 750 mmHg 57%
    20:00 +13°C° 0 mm 3 mps 750 mmHg 62%
    21:00 +12°C° 0 mm 3 mps 751 mmHg 67%
    22:00 +11°C° 0 mm 3 mps 751 mmHg 69%
    23:00 +10°C° 0 mm 2 mps 751 mmHg 71%

    23 August, Thursday

    Time Temperature Precipitation Wind Pressure Humidity
    00:00 +10°C° 0 mm 2 mps 752 mmHg 73%
    01:00 +10°C° 0 mm 2 mps 752 mmHg 74%
    02:00 +9°C° 0 mm 2 mps 752 mmHg 75%
    03:00 +9°C° 0 mm 2 mps 753 mmHg 76%
    04:00 +9°C° 0 mm 2 mps 753 mmHg 76%
    05:00 +9°C° 0 mm 2 mps 753 mmHg 77%
    06:00 +9°C° 0 mm 2 mps 753 mmHg 78%
    07:00 +12°C° 0 mm 2 mps 754 mmHg 71%
    08:00 +14°C° 0 mm 2 mps 754 mmHg 63%
    09:00 +16°C° 0 mm 2 mps 754 mmHg 56%
    10:00 +17°C° 0 mm 2 mps 754 mmHg 52%
    11:00 +18°C° 0 mm 2 mps 754 mmHg 47%
    12:00 +19°C° 0 mm 2 mps 754 mmHg 43%
    13:00 +20°C° 0 mm 3 mps 753 mmHg 42%
    14:00 +20°C° 0 mm 3 mps 753 mmHg 41%
    15:00 +21°C° 0 mm 3 mps 753 mmHg 40%
    16:00 +20°C° 0 mm 3 mps 753 mmHg 44%
    17:00 +20°C° 0 mm 2 mps 753 mmHg 47%
    18:00 +20°C° 0 mm 2 mps 752 mmHg 51%
    19:00 +18°C° 0 mm 2 mps 752 mmHg 55%
    20:00 +16°C° 0 mm 2 mps 752 mmHg 60%
    21:00 +14°C° 0 mm 2 mps 752 mmHg 65%
    22:00 +14°C° 0 mm 2 mps 753 mmHg 66%
    23:00 +13°C° 0 mm 2 mps 753 mmHg 68%

    24 August, Friday

    Time Temperature Precipitation Wind Pressure Humidity
    00:00 +13°C° 0 mm 2 mps 753 mmHg 69%
    01:00 +12°C° 0 mm 2 mps 753 mmHg 71%
    02:00 +12°C° 0 mm 2 mps 753 mmHg 72%
    03:00 +12°C° 0 mm 2 mps 753 mmHg 73%
    04:00 +12°C° 0 mm 2 mps 753 mmHg 74%
    05:00 +10°C° 0 mm 2 mps 753 mmHg 75%
    06:00 +10°C° 0 mm 2 mps 753 mmHg 75%
    07:00 +14°C° 0 mm 2 mps 753 mmHg 69%
    08:00 +16°C° 0 mm 2 mps 753 mmHg 62%
    09:00 +18°C° 0 mm 2 mps 753 mmHg 56%
    10:00 +19°C° 0 mm 2 mps 753 mmHg 52%
    11:00 +21°C° 0 mm 3 mps 753 mmHg 48%
    12:00 +22°C° 0 mm 3 mps 752 mmHg 44%
    13:00 +24°C° 0 mm 3 mps 752 mmHg 43%
    14:00 +24°C° 0 mm 2 mps 752 mmHg 41%
    15:00 +24°C° 0 mm 2 mps 752 mmHg 40%
    16:00 +24°C° 0 mm 2 mps 751 mmHg 43%
    17:00 +23°C° 0 mm 2 mps 751 mmHg 47%
    18:00 +23°C° 0 mm 1 mps 751 mmHg 50%
    19:00 +21°C° 0 mm 1 mps 751 mmHg 54%
    20:00 +19°C° 0 mm 1 mps 751 mmHg 58%
    21:00 +16°C° 0 mm 1 mps 751 mmHg 61%
    22:00 +15°C° 0 mm 1 mps 751 mmHg 62%
    23:00 +15°C° 0 mm 1 mps 751 mmHg 64%
    Show more